Temp
18 18 18 18 18 18 18 18 19 19 18 18 18 19 19 19 19 19 19 19 19 19 19 19 19 19 19 18 18 18 18 17 17 17 17 17 17 17 17 17 17 17 17 17 17 17 17 17 17 17 17 17 16 16 16 16 16 16 16 16 16 16 16 15 13 13 15 16 16 16 17 17 17 18 18 18 19 19 18 18 18 18 19 19 19
17 17 18 18 18 18 18 18 18 18 18 17 18 18 18 18 18 18 18 19 19 19 19 19 19 19 19 19 18 18 18 18 17 17 17 17 17 17 17 17 17 17 17 17 17 17 17 17 17 17 17 17 17 17 17 16 16 16 16 16 16 16 16 16 14 13 14 15 16 16 17 17 17 18 18 18 18 18 18 18 18 18 18 18 18
17 16 17 17 17 17 18 18 18 17 17 16 17 17 17 17 18 18 18 18 18 18 19 19 19 19 19 19 18 18 18 18 18 18 17 17 17 17 17 17 17 17 17 17 17 17 17 17 17 17 17 17 17 17 17 17 17 16 16 16 16 16 16 16 15 14 13 14 16 16 16 17 17 17 18 18 18 18 18 18 18 18 18 18 18
16 16 16 17 17 17 18 18 17 16 16 16 17 18 17 17 17 17 17 18 18 18 18 18 18 19 19 19 19 18 18 18 18 18 18 18 18 17 17 17 17 17 17 17 17 17 17 17 17 17 17 17 17 17 17 17 17 17 17 17 16 16 16 16 16 15 14 14 15 16 16 16 17 17 17 17 18 18 18 18 18 18 18 18 18
17 17 17 17 17 17 17 17 17 16 17 17 17 17 17 16 17 17 17 17 17 18 17 17 17 18 18 18 18 18 18 17 17 17 17 17 17 17 17 17 17 17 17 17 17 17 17 17 17 17 17 17 17 17 17 17 17 17 17 17 17 17 17 16 16 16 15 14 14 15 16 16 16 17 17 17 17 17 18 18 18 18 18 18 18
17 17 17 16 16 16 16 16 17 17 17 17 17 17 17 17 17 17 17 17 17 17 17 17 17 17 17 17 17 17 17 17 17 17 17 17 17 17 17 17 17 17 17 17 17 17 17 17 17 17 17 17 17 17 17 17 17 17 17 17 17 17 16 16 16 15 15 15 15 15 15 16 16 16 17 17 17 17 17 17 18 18 18 18 18
17 16 16 16 16 16 16 16 17 17 17 17 17 17 17 17 17 17 17 17 17 17 17 17 17 17 17 16 16 16 16 16 16 16 16 17 17 17 17 17 17 17 17 17 17 17 16 16 16 17 17 17 17 16 16 17 17 17 16 16 16 16 15 15 15 15 14 15 15 14 15 15 15 16 17 16 16 16 16 16 16 17 17 17 17
16 16 16 16 17 17 17 17 17 17 17 17 17 17 17 17 16 16 16 16 16 16 17 17 17 17 17 16 16 15 16 16 15 15 15 16 16 16 16 16 16 16 16 16 16 16 16 16 16 16 17 17 16 16 16 16 16 16 16 16 15 15 14 14 14 14 14 14 14 14 15 15 15 15 16 16 15 15 16 16 15 16 17 17 17
17 17 17 17 17 18 18 17 17 17 17 17 17 16 16 16 16 16 16 16 15 16 16 16 17 16 16 16 16 15 15 15 15 14 14 15 15 15 15 15 15 15 15 15 15 16 16 16 16 16 16 16 16 16 16 16 15 15 16 15 15 14 14 14 14 13 13 13 13 14 14 14 14 14 15 15 15 15 16 16 15 16 16 16 16
17 17 17 17 17 17 17 17 17 17 17 17 16 16 16 16 16 16 16 15 16 16 16 16 16 16 16 15 15 14 14 14 14 14 14 14 14 14 14 14 14 14 15 15 15 15 15 16 16 16 16 16 16 16 16 16 16 15 15 15 15 14 14 14 13 13 13 13 13 14 13 13 14 14 14 15 15 15 15 15 14 15 15 14 15
17 17 17 17 17 16 16 16 16 16 16 16 16 16 16 16 16 15 15 15 15 15 15 15 15 15 15 14 14 14 14 14 14 14 14 14 14 13 13 14 14 14 14 14 14 14 14 15 15 15 15 16 16 15 15 15 15 15 15 15 14 14 14 13 13 13 13 13 13 14 13 13 14 14 14 14 14 14 14 14 14 13 13 12 13
17 17 17 17 16 16 16 16 16 16 16 15 15 16 16 16 15 15 15 15 15 15 14 14 14 14 14 14 13 13 13 13 13 13 13 13 14 13 13 13 13 13 13 14 13 13 14 14 14 14 15 15 15 15 15 15 15 14 14 14 14 14 14 14 13 13 13 13 13 13 13 13 13 14 14 14 14 14 14 13 13 13 12 12 11
16 16 16 16 16 16 16 16 15 15 15 15 15 15 15 15 15 14 14 14 14 14 14 14 14 14 13 13 12 12 12 12 13 13 13 13 13 13 13 13 13 13 13 13 13 13 13 13 13 13 13 14 13 14 14 14 14 14 14 14 14 13 14 14 13 13 13 13 13 12 13 13 13 13 14 13 13 13 13 13 13 12 12 11 12
16 16 16 16 16 15 15 15 15 15 15 15 15 15 15 14 14 14 14 14 14 14 14 13 13 13 12 12 12 12 12 13 13 13 13 13 13 13 12 12 12 12 12 12 12 12 12 12 12 12 12 13 12 13 13 13 13 13 13 13 13 13 13 13 13 13 12 12 12 12 12 12 12 13 13 13 12 12 12 12 12 11 11 11 11
16 16 16 16 16 15 15 15 15 15 15 15 14 14 14 14 14 14 14 14 14 14 13 12 12 12 12 12 12 13 13 13 13 14 14 14 14 13 12 11 11 12 11 12 12 12 12 12 12 12 12 12 12 12 12 12 12 12 12 12 12 12 12 12 12 12 11 11 12 11 11 11 11 11 11 11 11 11 11 11 11 11 10 10 10
15 15 15 16 16 15 15 14 15 15 15 14 14 14 14 13 13 13 13 13 13 13 13 12 13 12 12 13 13 12 12 13 13 13 14 14 14 13 11 10 11 11 11 11 11 11 12 12 12 11 11 11 11 11 11 11 11 11 11 11 11 11 11 11 11 11 11 11 11 11 10 10 10 10 10 10 10 10 10 10 10 10 10 9 10
15 15 15 15 15 15 15 14 14 14 14 14 14 13 13 13 13 13 13 13 13 13 13 13 13 13 12 12 12 12 12 12 12 13 13 13 14 12 10 9 10 10 10 11 11 11 11 11 11 11 11 11 11 11 11 11 11 10 10 10 9 10 10 10 10 10 10 10 10 9 9 9 9 9 9 9 9 9 10 10 9 9 9 9 9
15 15 15 15 15 15 15 15 14 14 14 14 14 14 13 13 13 13 13 13 13 13 13 13 13 12 12 12 12 12 12 12 12 12 12 12 13 11 9 9 10 10 10 11 11 11 11 11 11 11 11 11 11 11 11 11 11 10 8 8 9 9 9 9 9 9 9 9 9 9 9 9 9 9 9 9 9 9 9 8 8 8 8 8 8
15 15 15 15 15 15 15 15 15 14 14 14 14 14 14 13 13 13 13 13 13 12 13 13 13 12 12 12 12 12 12 12 12 12 11 12 12 11 11 10 10 10 10 11 11 11 11 11 11 11 11 11 11 11 11 11 11 9 8 8 8 8 8 9 9 9 9 9 9 9 9 9 9 9 9 9 9 8 8 8 8 8 8 8 8
15 15 15 15 15 15 15 15 15 14 14 14 13 13 13 13 13 13 13 13 13 13 12 13 13 12 12 12 12 12 12 12 11 11 11 11 11 11 11 11 11 10 11 11 11 11 11 11 11 11 11 11 11 11 11 11 11 10 9 8 8 8 8 8 8 8 9 8 8 9 9 9 9 9 9 9 8 8 8 8 8 8 8 8 8
15 15 15 15 15 15 15 15 15 14 14 14 14 13 13 13 13 13 13 13 13 13 12 12 12 12 12 12 12 12 12 12 11 11 11 11 11 11 11 11 11 11 11 11 11 11 11 11 11 11 11 11 11 11 11 11 11 11 10 9 9 8 9 9 8 8 9 9 8 9 9 9 9 9 9 9 9 8 8 8 8 8 8 8 8
15 15 15 15 15 15 15 15 15 15 15 14 14 14 14 13 13 13 13 13 13 13 12 12 12 12 12 12 12 12 12 11 11 12 12 11 11 11 11 11 11 11 11 11 11 11 11 11 11 11 11 11 11 11 11 11 11 11 10 10 10 10 10 9 9 9 9 9 9 9 9 9 9 9 9 9 9 9 9 9 8 8 8 8 8
15 15 15 15 15 15 15 16 16 16 16 15 15 15 14 14 14 14 13 13 13 13 12 12 12 12 12 12 12 12 12 11 11 11 12 12 11 11 11 11 11 11 11 11 11 10 10 10 10 10 10 11 10 10 11 11 11 11 10 10 10 10 10 10 10 10 10 10 10 10 9 9 9 9 9 9 9 9 9 9 9 9 9 9 9
15 15 15 15 15 15 15 16 16 16 16 16 16 16 15 15 14 14 14 14 13 13 13 13 12 12 12 12 12 12 12 11 11 11 12 12 11 11 11 11 11 11 11 11 10 10 10 10 10 10 10 10 10 10 10 10 11 11 11 10 10 10 10 10 10 10 10 10 10 10 10 10 10 10 9 9 9 9 9 9 9 9 9 9 9
16 16 15 15 15 15 15 15 16 16 16 16 16 16 16 15 15 14 14 14 14 14 14 13 13 13 13 12 12 12 12 11 11 12 12 12 12 11 11 11 11 11 11 11 11 10 10 10 10 10 10 10 10 10 10 10 10 10 10 10 10 10 11 11 10 10 10 10 10 10 10 10 10 10 10 9 9 9 9 9 9 9 9 9 9
16 16 16 16 15 15 15 15 15 15 15 15 15 15 15 15 15 15 15 14 14 14 14 14 13 13 13 13 12 12 12 12 12 12 12 12 12 12 11 11 11 11 11 11 11 11 11 11 11 11 11 11 10 10 10 10 10 10 10 10 10 10 10 10 10 10 10 10 10 10 10 10 10 10 10 9 9 9 9 9 9 9 9 9 10
15 15 15 15 16 15 15 15 15 15 15 15 15 15 15 15 15 15 15 15 14 14 13 13 13 13 13 13 12 12 12 12 12 12 12 12 12 12 12 12 12 12 12 11 11 12 12 12 12 12 11 11 11 11 11 11 10 10 10 10 10 10 10 10 10 10 10 10 10 10 10 10 10 10 10 10 10 9 9 9 9 9 9 9 10
15 15 15 15 15 15 15 15 15 15 15 15 15 15 15 15 15 15 15 15 15 15 14 14 13 13 13 13 13 12 12 13 13 13 12 12 12 12 12 12 12 12 12 12 12 12 12 13 13 12 12 12 12 12 12 12 12 11 10 10 10 10 10 10 10 10 10 10 10 10 10 10 10 10 10 10 11 10 10 10 10 9 9 10 10
15 15 15 15 15 15 15 15 15 15 15 15 15 15 15 15 15 15 15 15 15 15 15 14 14 13 13 13 13 13 13 13 13 13 13 13 13 13 13 12 12 12 12 12 13 13 13 13 13 13 13 13 13 13 13 13 12 12 11 10 10 10 10 10 10 10 10 10 11 11 11 10 11 10 10 11 11 11 11 10 10 10 10 10 10
15 15 15 15 15 15 15 15 15 15 15 15 14 14 14 15 14 14 15 14 14 14 14 14 14 14 13 13 13 13 13 13 13 13 13 13 13 13 12 12 12 13 13 13 13 13 12 12 12 12 12 12 12 12 12 12 12 12 12 12 11 11 10 10 10 10 10 10 11 11 11 10 11 11 11 11 11 12 11 11 11 11 10 10 10
15 15 15 15 15 15 15 15 15 15 15 15 15 14 14 14 14 14 14 14 14 14 14 14 14 14 14 14 14 14 14 13 13 13 13 13 12 12 12 13 13 13 13 13 13 12 11 11 11 11 11 10 10 10 10 11 11 12 12 12 12 11 11 11 11 11 10 10 11 11 11 11 11 11 11 11 11 11 11 11 11 11 11 10 10
15 15 15 15 15 15 15 15 15 15 15 15 15 14 14 14 14 14 14 14 14 14 14 14 14 14 14 13 13 14 14 13 13 13 13 13 12 12 12 13 13 13 13 13 13 12 11 10 11 11 10 10 10 10 11 11 11 11 11 11 12 12 12 11 11 11 11 11 11 11 11 11 11 11 11 11 11 11 12 12 11 11 11 11 11
15 15 15 15 15 15 15 15 14 15 15 15 15 15 15 14 14 14 14 14 14 14 14 14 14 14 14 13 13 14 14 13 13 13 13 12 12 12 12 12 13 13 13 13 12 12 11 11 11 10 10 10 11 11 11 11 11 11 11 11 11 11 12 11 11 11 10 10 10 10 10 10 10 10 11 11 11 11 11 12 12 11 11 11 12
15 15 15 15 15 15 15 15 15 14 15 15 15 15 15 15 14 14 14 13 13 14 14 14 14 14 14 13 13 13 14 13 13 13 13 12 12 12 12 12 12 13 13 13 12 12 11 11 11 11 11 11 11 11 11 11 11 11 11 11 10 10 10 10 10 10 10 10 10 10 10 9 10 10 11 11 11 11 11 11 12 11 11 11 12
15 15 15 15 15 15 15 15 15 15 14 15 15 15 15 15 14 14 14 13 13 13 14 14 14 14 14 14 13 13 13 13 13 13 13 12 12 12 12 12 12 13 13 13 12 11 11 11 11 11 11 11 11 10 10 10 10 10 10 10 10 10 10 10 10 10 10 9 9 9 9 9 9 10 10 10 10 10 10 11 11 11 11 11 11
15 15 15 15 15 15 15 15 15 15 15 15 15 15 15 15 14 14 14 14 13 13 14 14 15 14 14 14 14 14 13 13 13 13 12 12 12 12 12 12 13 13 13 12 12 11 11 11 11 11 11 10 10 10 10 10 10 10 10 10 10 10 10 10 9 9 9 9 9 9 9 9 9 9 9 9 9 9 9 10 10 10 10 10 10
15 15 15 15 15 15 15 15 15 15 15 15 15 15 14 14 14 14 14 14 14 14 14 14 14 14 14 14 14 14 13 13 13 12 12 12 12 12 12 12 12 12 12 12 12 11 11 10 10 10 10 10 10 10 10 10 9 9 9 9 10 10 9 9 9 9 9 9 8 8 8 8 8 8 8 8 8 8 8 9 9 9 10 10 10
16 16 16 16 16 16 15 15 15 15 15 15 15 15 14 14 14 14 14 14 14 14 15 14 14 14 14 14 14 14 13 13 12 12 12 12 12 12 12 12 12 12 12 11 11 11 10 10 10 10 9 9 9 9 9 9 9 9 9 9 9 9 9 9 8 8 8 8 8 8 8 8 7 7 7 7 7 7 8 8 8 9 9 9 9
15 15 15 15 15 15 15 15 15 15 15 15 15 15 14 14 14 14 14 14 14 15 15 14 14 14 14 14 14 14 13 12 12 12 12 12 12 12 12 12 11 11 11 11 10 10 10 9 9 9 9 9 9 9 9 9 9 9 8 8 8 8 8 8 8 7 7 7 7 7 7 7 6 6 7 6 6 7 7 7 8 8 8 8 9
13 13 13 14 14 14 13 13 13 13 13 13 13 13 13 13 13 13 13 13 14 14 14 14 14 14 14 14 14 13 12 12 12 12 12 12 12 11 12 11 11 11 11 10 10 10 10 9 9 9 9 9 9 9 8 8 8 8 8 8 8 8 7 7 7 7 7 7 6 6 6 6 6 6 6 6 6 6 6 7 7 7 7 8 8
12 12 13 13 13 13 13 13 12 12 12 12 11 11 11 11 12 11 11 11 12 12 12 13 13 14 14 14 14 14 13 12 12 12 12 12 11 11 11 11 11 11 10 10 10 10 9 9 9 9 9 9 8 8 8 8 8 8 7 7 7 7 6 6 6 6 6 6 6 6 6 6 6 5 5 5 5 5 6 6 6 6 7 7 7
11 11 11 12 12 12 13 13 13 13 12 12 12 12 11 11 11 11 10 10 10 10 10 11 11 12 13 13 13 13 13 12 12 12 12 11 11 11 11 11 10 10 10 10 9 9 9 9 9 9 9 8 8 8 8 8 8 7 7 7 6 6 6 6 6 5 6 5 5 5 5 5 5 5 4 5 5 5 5 5 6 6 6 6 6
10 10 10 11 11 11 12 12 12 12 12 12 12 12 12 12 12 11 11 11 11 10 9 9 10 10 11 12 13 12 12 12 12 11 11 10 10 10 10 10 10 9 9 9 9 9 9 9 8 8 8 8 8 8 8 8 7 7 7 7 6 6 5 5 5 5 5 5 5 5 5 5 4 4 4 4 5 5 5 5 5 5 5 5 5
9 9 10 10 10 10 11 11 11 11 11 11 12 12 12 12 12 12 11 11 11 11 10 10 9 9 9 10 11 11 11 11 11 11 10 10 10 9 9 9 9 9 9 9 8 8 8 8 8 8 8 8 8 8 7 7 7 7 7 7 6 6 5 5 5 5 5 4 4 4 4 4 4 4 4 4 4 4 4 4 4 4 4 4 4
9 9 9 9 9 10 10 10 10 11 11 11 11 11 11 11 11 11 11 10 10 10 10 10 10 9 9 9 10 10 10 10 10 10 9 9 9 9 8 8 8 8 8 8 8 8 8 8 8 8 8 7 7 7 7 7 7 7 7 7 6 6 5 5 5 5 4 4 4 4 4 4 4 3 3 3 3 3 3 3 3 3 3 3 3
8 8 8 8 8 8 9 9 9 9 10 10 10 10 10 10 10 10 10 10 10 10 10 10 9 9 9 9 9 9 10 10 9 9 8 8 8 8 7 8 8 8 8 8 7 8 8 8 7 7 7 7 7 7 6 6 7 6 6 6 6 6 6 5 5 5 4 4 4 4 4 4 3 3 3 3 2 3 3 2 2 2 2 2 2
7 7 7 7 7 7 7 8 8 8 8 8 9 9 9 9 9 10 10 10 10 9 9 9 8 8 8 8 8 8 9 9 9 8 8 8 7 7 7 8 8 8 7 7 7 7 7 7 7 7 7 7 7 7 6 6 6 6 6 6 6 6 5 5 5 4 4 4 4 3 3 3 3 3 2 2 2 2 2 2 2 2 1 1 1
7 6 6 6 6 6 6 6 6 6 7 7 8 8 8 9 9 9 8 8 8 7 7 7 7 7 7 6 7 8 8 8 8 8 8 7 7 7 7 7 7 7 7 7 7 7 7 7 7 7 7 6 6 6 6 6 6 5 5 5 5 5 5 4 4 4 3 3 3 3 3 3 3 2 2 2 2 2 1 1 1 1 1 1 1
6 6 5 5 4 4 4 4 4 5 5 6 6 6 7 7 7 7 6 6 6 6 6 6 6 6 6 6 6 7 7 7 7 7 7 7 7 7 7 7 7 7 7 7 7 7 7 7 6 6 6 6 6 6 6 5 5 5 5 5 5 4 4 4 3 3 3 3 3 2 2 2 2 2 2 2 1 1 1 1 1 0 0 0 0
5 5 4 4 4 4 4 4 4 4 4 4 4 4 4 4 4 4 4 4 4 5 5 5 5 5 5 5 6 6 6 6 6 6 6 6 6 5 5 6 6 7 7 7 7 7 6 6 6 6 6 5 5 5 5 5 4 4 4 4 4 4 4 3 3 3 2 2 2 2 2 2 2 2 1 1 1 1 1 0 0 0 -0 -0 -0
4 3 3 3 3 3 3 3 3 3 3 3 3 2 2 2 3 3 4 4 4 4 4 4 4 4 4 5 5 5 5 5 5 5 5 5 4 4 5 5 6 6 6 6 6 6 6 6 5 5 5 5 5 4 4 4 4 4 4 4 3 3 3 3 2 2 2 2 2 2 1 1 1 1 1 1 1 1 0 0 -0 -0 -0 -0 -1
Height
788 788 787 787 787 788 789 790 788 789 790 792 794 796 797 797 796 797 797 797 797 796 796 797 797 797 797 797 798 798 799 800 801 802 802 803 802 802 803 803 803 803 803 803 803 802 802 802 801 801 800 800 800 800 800 800 800 800 801 801 801 802 802 801 801 798 795 795 795 794 794 795 793 792 792 791 791 791 791 790 790 789 789 788 788
787 786 786 785 786 787 787 786 786 787 789 791 793 794 795 795 795 796 796 796 796 795 795 795 795 795 795 796 796 796 797 798 799 800 800 800 800 800 801 801 800 800 800 800 800 800 800 799 799 798 798 798 797 797 797 797 797 797 797 798 798 798 799 798 798 796 794 793 793 791 791 792 790 789 789 789 788 788 788 787 787 787 786 786 785
785 786 785 785 786 786 784 783 785 788 790 791 791 792 793 793 794 794 794 794 794 794 794 793 794 794 794 794 794 794 795 795 796 797 797 797 798 798 798 798 798 798 798 797 798 798 798 797 797 796 796 796 795 795 795 794 794 794 794 795 795 794 795 795 794 794 792 790 790 789 788 789 788 787 787 787 786 786 785 784 784 784 783 783 782
784 785 785 784 784 784 783 783 786 789 790 790 790 790 791 792 792 793 793 793 792 792 792 792 792 792 792 793 793 793 793 794 794 794 794 794 795 795 795 796 795 795 795 795 796 796 796 796 795 795 794 794 793 793 793 792 792 792 791 791 792 791 791 792 791 791 790 788 787 787 786 786 785 784 784 784 783 783 782 782 781 780 780 780 779
783 783 783 783 785 785 785 785 787 788 788 788 788 788 789 790 790 790 790 791 791 791 791 791 791 791 791 791 791 792 792 793 793 792 792 792 792 792 793 793 793 793 792 793 793 794 794 793 793 793 793 792 791 790 790 790 790 789 789 788 789 788 788 788 788 787 787 785 783 783 784 783 782 781 781 781 780 780 779 778 778 777 776 776 775
781 782 783 784 786 787 787 787 787 787 787 787 787 788 787 787 788 788 789 789 789 790 790 789 789 789 789 789 790 790 790 791 791 791 791 790 790 790 791 790 790 790 790 791 791 791 791 791 790 790 790 790 789 788 788 788 788 787 787 786 786 786 785 785 785 785 784 783 781 780 780 780 780 778 777 778 778 777 775 775 774 774 772 772 771
783 784 785 785 786 787 788 787 787 786 786 786 787 786 786 785 786 787 788 788 789 789 788 788 788 787 787 787 788 789 789 789 789 789 789 789 788 788 788 788 788 788 788 788 789 789 789 788 788 787 787 787 786 786 786 786 785 785 784 784 784 784 783 783 783 783 782 781 779 778 776 776 776 774 773 774 775 774 772 771 770 769 769 768 768
786 786 786 786 786 786 786 787 786 786 786 786 786 785 784 785 786 786 787 788 788 788 787 787 786 786 786 786 787 787 787 787 787 788 788 788 787 787 786 786 786 786 786 787 787 788 787 787 786 785 784 784 784 784 784 784 783 783 782 782 782 782 782 781 781 781 781 780 778 776 774 773 772 771 771 772 772 770 769 769 767 765 765 765 765
786 786 786 785 785 784 784 784 784 785 785 785 785 785 785 785 785 784 785 787 788 787 786 786 785 785 786 785 786 786 786 786 786 787 787 786 786 786 785 785 785 785 785 786 786 786 786 784 783 782 782 781 781 781 781 781 781 780 780 780 780 779 779 779 778 778 777 777 775 774 772 771 769 768 768 768 767 766 765 766 765 763 762 761 761
786 786 786 785 785 784 783 783 783 784 784 784 785 785 784 783 782 783 784 786 787 786 785 785 785 785 785 785 785 786 785 785 785 785 785 785 784 784 784 784 784 784 784 784 784 784 783 782 781 780 780 779 779 779 778 778 778 778 777 777 777 777 776 776 776 775 774 773 772 771 770 768 766 765 765 764 764 763 763 763 762 761 761 759 757
788 787 787 786 785 784 784 784 783 784 784 784 784 784 783 783 783 785 786 786 786 785 784 784 784 785 785 785 785 785 784 785 784 784 784 783 783 782 782 782 782 782 782 781 781 781 781 781 780 779 778 777 776 776 776 776 775 775 775 775 775 775 774 773 772 771 771 769 768 768 767 765 763 763 762 761 761 760 759 759 759 759 758 758 755
788 788 788 787 787 786 786 786 786 786 786 786 786 785 785 785 785 786 786 786 786 785 785 785 785 785 785 784 784 784 784 784 783 783 782 782 781 781 781 780 780 780 780 779 779 779 779 778 778 777 777 776 775 774 774 773 773 773 772 772 772 771 771 770 769 768 767 767 765 765 764 762 761 760 760 759 758 757 756 756 756 756 755 754 753
790 789 789 789 789 789 789 789 789 789 789 788 788 787 787 787 786 786 786 786 786 786 786 786 785 785 785 785 785 784 784 783 783 782 781 781 780 780 779 779 779 779 779 778 778 778 777 776 775 775 775 774 773 773 772 771 770 770 769 769 768 768 768 767 766 765 765 764 762 761 760 760 758 757 757 757 755 755 754 753 752 752 751 750 749
792 792 791 791 791 791 791 790 791 791 790 790 789 789 788 788 788 788 787 787 787 787 787 787 786 786 786 786 785 785 784 783 782 781 780 779 778 778 778 778 778 778 778 777 777 776 776 775 774 773 773 772 771 770 770 769 768 767 766 766 765 765 764 764 763 762 761 760 758 757 756 757 755 752 753 753 752 751 751 750 749 749 748 747 746
794 794 793 793 793 793 792 792 792 792 792 791 790 790 789 789 788 788 788 788 788 788 788 787 787 787 787 786 786 785 784 783 782 781 779 778 777 776 776 776 777 777 777 776 776 776 775 774 773 772 771 770 770 769 768 767 766 764 763 763 762 762 762 761 760 759 758 757 755 753 753 752 751 748 749 749 747 747 747 746 746 746 745 744 744
796 796 795 795 794 794 794 794 794 793 793 793 792 791 791 790 790 789 789 789 789 789 789 789 788 788 788 787 786 785 785 783 782 781 779 778 776 775 775 776 776 776 776 776 775 775 774 773 772 771 771 769 769 768 766 765 764 763 761 760 760 760 760 759 757 756 755 754 753 752 750 749 748 747 747 747 745 744 743 743 743 743 743 742 742
798 798 797 797 797 796 796 796 796 795 795 794 793 793 792 792 792 791 791 791 791 790 790 790 789 789 788 788 787 786 785 784 782 781 779 778 776 775 775 775 776 776 776 776 775 775 774 773 772 771 770 769 768 767 765 764 762 761 760 759 759 759 758 758 757 755 755 754 753 752 751 749 748 747 746 746 745 744 742 740 740 741 741 742 741
801 800 800 799 799 798 798 797 797 797 796 795 795 795 794 794 794 794 793 793 792 792 791 791 790 790 789 789 788 787 786 785 784 782 780 779 777 776 776 776 776 776 776 776 775 775 774 773 772 771 770 769 768 767 765 763 762 761 760 759 759 758 758 758 757 756 756 754 753 752 751 750 748 747 746 745 744 743 741 740 741 741 741 741 741
803 802 802 801 800 800 799 798 798 797 797 797 797 796 796 796 796 796 795 794 794 793 793 792 792 791 791 790 789 788 787 786 785 783 782 781 779 778 777 776 776 776 776 776 776 775 774 774 773 772 771 770 769 767 766 764 762 761 761 760 760 759 759 759 758 757 756 755 754 753 751 750 749 748 747 746 745 744 743 742 742 741 741 741 741
804 804 804 803 802 801 800 799 798 798 798 798 798 798 798 798 798 797 797 796 795 795 794 793 793 792 792 791 790 789 788 787 787 785 784 782 781 780 779 778 777 777 777 776 776 775 775 774 773 773 772 771 770 768 767 765 764 763 762 761 761 761 761 760 759 758 757 756 755 754 753 752 751 750 749 748 747 746 745 744 743 743 742 742 742
806 806 805 804 803 802 801 800 800 799 799 799 799 799 799 799 799 798 798 797 796 796 795 795 794 793 793 792 791 790 790 789 788 787 786 784 783 782 780 779 778 778 777 777 776 776 775 774 774 773 772 771 771 769 768 767 765 764 763 762 762 762 761 761 760 759 759 758 757 757 756 755 754 753 751 750 749 748 747 746 745 745 744 744 744
807 807 806 805 805 803 802 802 801 800 800 799 799 799 799 799 799 798 798 798 797 797 796 795 795 794 793 793 792 791 791 790 789 788 787 786 785 784 782 781 781 780 779 778 778 777 776 776 775 774 773 772 771 770 769 768 767 765 764 763 763 763 762 761 761 760 760 759 759 758 757 756 755 754 753 752 751 750 749 748 747 747 746 746 745
808 808 807 806 806 805 804 803 802 801 801 800 799 799 799 799 798 798 798 797 797 797 796 796 795 794 794 793 792 792 791 790 790 789 788 787 786 785 784 783 782 782 781 780 779 778 778 777 776 775 774 773 772 771 771 770 768 767 766 765 764 763 762 762 762 761 761 760 760 759 759 758 757 756 755 754 753 751 750 749 749 748 747 747 746
809 808 808 808 807 806 805 804 803 802 801 801 800 799 799 799 798 797 797 797 796 796 795 795 794 794 793 793 792 792 791 790 789 789 788 787 786 785 784 783 783 782 781 780 780 779 779 778 777 776 775 774 773 772 771 771 770 768 767 767 765 765 764 763 762 762 761 761 760 760 759 758 757 756 755 755 754 753 752 751 750 749 748 748 747
809 808 808 808 808 807 806 805 804 803 802 801 800 800 799 799 798 797 797 796 795 794 794 793 793 792 792 792 791 791 790 789 788 788 787 786 786 785 784 783 782 782 781 780 780 779 779 778 777 777 776 775 775 774 772 771 770 770 769 768 767 766 765 764 763 762 761 761 760 760 759 758 758 757 756 755 755 754 753 752 751 750 749 748 748
809 809 809 808 808 807 806 805 804 803 803 802 801 800 800 799 798 797 796 795 795 794 793 792 792 791 791 791 790 790 789 788 787 786 786 785 785 784 783 782 782 781 780 779 779 778 778 777 777 776 775 775 774 774 773 772 771 770 769 768 767 766 765 764 763 762 762 761 760 760 759 759 758 757 756 756 755 754 753 752 752 751 750 749 749
809 808 808 808 807 807 806 805 804 803 803 802 801 800 800 799 798 797 796 795 794 793 793 792 791 791 790 790 789 789 788 787 786 785 785 784 783 783 782 782 781 780 779 778 778 777 776 776 775 774 774 773 773 772 771 771 770 770 769 768 767 766 765 764 763 762 761 761 760 760 760 759 758 757 756 756 755 755 754 753 752 752 751 750 750
809 809 808 807 806 806 805 804 804 803 802 801 800 800 799 798 798 797 796 795 794 793 792 791 790 790 789 789 789 788 787 786 785 785 784 783 782 782 781 781 780 779 778 777 776 775 774 774 773 772 772 771 770 769 769 769 768 768 768 767 767 766 765 764 763 762 761 760 760 760 759 759 758 757 756 755 755 754 754 753 753 752 751 750 750
809 809 808 806 806 805 804 804 803 802 801 800 799 799 798 798 797 796 795 794 793 792 792 791 790 789 788 788 787 787 786 785 784 784 783 782 782 781 780 780 779 778 777 776 775 773 772 771 771 770 769 769 768 766 766 765 765 765 766 766 766 765 764 763 762 761 760 759 759 759 759 758 757 757 756 756 755 754 754 753 752 752 751 750 750
809 808 807 806 805 804 803 803 802 801 800 799 799 798 798 797 796 795 794 794 793 792 791 790 789 788 787 786 786 785 784 783 783 782 782 781 781 780 779 779 778 777 776 775 773 772 770 769 768 768 768 767 765 763 762 762 762 762 762 763 764 763 763 762 761 760 759 759 758 758 758 757 757 756 756 755 754 754 753 753 752 752 751 750 750
808 807 806 805 804 803 802 802 801 800 800 799 798 797 797 796 795 794 793 792 791 790 789 789 788 787 786 785 784 783 782 782 781 781 780 780 779 779 778 777 776 775 775 773 772 770 769 768 767 767 767 766 764 761 760 759 759 759 759 760 761 762 761 760 759 759 759 758 758 757 757 756 756 756 755 755 754 753 753 752 752 751 751 750 749
807 806 805 804 803 802 801 800 800 799 798 797 796 795 795 794 793 792 791 790 789 788 787 786 786 785 784 783 782 781 781 780 779 779 779 778 778 777 776 776 775 774 773 772 771 770 768 768 767 767 766 765 763 761 759 758 757 757 757 758 759 759 759 759 759 758 758 757 757 757 756 756 756 755 755 754 754 753 752 751 751 751 750 749 749
805 804 803 802 801 800 799 798 798 797 796 795 794 793 792 791 790 789 788 787 786 785 784 783 782 781 781 780 780 779 778 778 778 777 777 776 776 775 774 774 773 772 771 770 769 768 768 768 768 767 766 765 763 762 760 759 759 758 757 757 757 757 758 758 758 757 757 756 756 756 755 755 754 754 754 753 752 751 751 750 750 750 749 748 748
802 801 800 799 799 798 797 796 795 794 793 793 791 790 789 788 786 785 784 783 782 781 780 780 779 778 777 777 776 776 776 775 775 775 775 774 774 773 772 772 771 770 769 769 768 767 767 767 766 766 766 765 764 763 762 762 762 761 760 758 757 757 757 757 757 757 756 756 755 754 754 753 752 752 752 751 750 750 749 749 748 748 747 747 746
799 798 797 796 795 794 794 793 792 791 790 789 788 787 786 784 783 782 780 779 778 777 776 776 775 774 774 773 772 772 772 772 772 772 772 772 772 771 770 769 769 768 767 766 766 765 765 765 764 764 764 764 763 763 763 763 763 763 762 761 760 759 758 758 758 757 756 755 755 754 753 752 751 751 751 750 749 749 748 747 747 746 746 746 746
796 795 794 793 792 791 790 789 788 787 787 785 784 783 782 781 780 778 777 776 775 774 772 772 771 770 769 768 768 767 768 769 769 770 770 770 770 769 768 767 766 765 765 764 764 764 764 763 763 763 763 762 762 762 762 762 762 762 762 762 761 761 760 760 759 758 757 756 755 755 753 752 751 751 750 750 749 749 748 747 747 746 745 745 745
793 792 791 790 789 788 787 786 785 784 783 781 780 779 778 777 776 775 774 773 771 770 769 768 767 766 765 765 764 763 763 765 767 767 768 768 767 767 766 765 764 763 763 762 762 762 763 763 762 762 762 762 761 762 761 761 761 761 761 761 761 761 761 760 759 759 757 756 756 755 754 753 753 752 751 749 749 748 748 747 746 746 745 745 745
790 789 788 787 785 784 783 782 781 780 779 778 777 775 774 773 772 771 770 769 767 766 765 764 763 762 761 761 761 760 760 762 763 764 764 765 764 764 763 762 762 762 761 761 762 762 762 762 762 762 761 761 761 761 761 761 761 761 761 761 761 761 760 760 759 758 757 756 755 755 754 754 753 752 751 750 749 749 748 747 747 746 745 745 744
790 788 787 785 784 782 780 779 777 776 775 773 772 771 770 769 768 767 766 764 763 762 761 760 759 758 757 757 757 757 756 757 758 759 761 761 761 761 760 760 760 761 761 761 762 762 762 762 762 761 761 761 761 761 761 761 760 760 760 761 761 760 760 760 759 758 757 756 756 755 755 754 754 753 752 751 750 749 748 747 747 746 745 745 744
790 789 787 786 784 782 781 779 778 776 774 772 771 769 768 767 766 764 763 761 760 758 757 756 756 755 755 754 754 753 752 752 753 755 757 758 757 757 757 758 758 759 760 760 761 761 761 761 761 761 760 760 760 760 760 760 760 760 760 760 760 760 760 759 759 758 757 756 755 755 754 754 753 753 752 751 750 750 748 748 747 746 745 745 744
790 789 787 785 784 782 780 779 777 775 774 772 770 769 768 766 765 764 763 762 760 758 756 755 754 753 753 753 751 750 749 749 750 752 753 753 754 754 755 756 756 757 758 758 759 760 760 760 760 760 759 760 760 760 759 759 759 759 760 760 759 759 759 759 758 757 757 756 755 754 754 753 752 752 751 751 750 749 748 748 747 746 746 745 744
790 788 786 785 783 781 779 777 775 773 771 770 768 767 766 764 763 762 762 761 760 758 756 755 753 752 751 750 749 748 747 746 747 749 749 750 751 752 753 754 755 755 756 757 757 758 758 758 758 758 758 758 759 758 758 758 758 758 759 759 759 759 758 758 758 757 756 756 755 754 753 753 752 751 751 750 749 749 748 747 747 746 746 745 744
789 787 785 783 781 779 777 775 773 771 770 768 766 765 763 762 760 758 757 757 755 753 752 751 751 751 750 748 747 746 746 746 746 747 747 749 750 751 752 753 754 754 755 755 756 757 757 756 756 756 756 757 757 757 757 757 757 757 757 757 757 757 757 757 757 757 756 755 755 754 753 752 752 751 751 750 749 748 747 747 747 746 746 745 744
788 786 783 781 779 777 775 773 771 769 767 766 764 762 761 759 757 755 753 752 750 748 747 746 746 747 748 748 747 746 746 747 746 746 746 747 749 751 752 752 752 752 752 753 754 755 756 755 755 755 755 756 756 755 755 755 755 755 756 756 756 756 756 756 755 755 755 755 754 754 753 752 752 752 751 750 750 749 748 747 747 746 746 745 744
786 784 782 779 777 774 772 770 768 766 764 763 761 759 758 756 754 752 751 749 747 746 744 743 743 744 745 746 746 745 746 746 746 745 745 745 746 748 750 750 750 750 750 751 752 753 754 754 754 754 754 755 754 754 754 754 754 754 754 754 754 754 754 754 754 753 753 753 753 753 752 752 751 751 751 751 750 750 749 748 748 747 746 745 745
786 783 781 778 776 773 771 768 766 764 762 760 758 756 755 753 752 750 748 746 745 743 741 740 740 741 742 742 742 743 744 745 745 745 745 745 745 746 748 749 749 749 749 750 751 752 752 753 753 753 753 753 753 753 753 753 753 753 753 753 753 753 752 752 752 752 752 752 752 752 751 751 751 751 751 751 750 750 749 749 748 747 747 746 746
785 783 781 778 775 773 770 768 765 763 761 759 757 755 753 751 749 747 746 743 742 740 739 738 738 739 739 739 739 741 743 745 745 746 746 745 745 746 747 749 749 749 748 748 749 750 751 752 752 752 752 751 751 751 751 751 751 752 752 752 752 752 751 751 751 751 751 751 750 751 750 750 750 750 750 750 750 750 749 749 748 748 747 747 746
785 782 780 777 775 773 770 768 765 763 761 758 756 754 752 750 747 745 744 742 741 739 739 739 739 738 739 740 740 742 744 747 747 747 747 746 746 746 748 748 749 749 748 747 748 748 749 750 751 750 750 750 749 749 749 749 750 751 751 751 751 751 750 750 750 749 749 749 749 749 749 749 749 749 749 749 749 749 748 748 748 747 747 747 746
784 782 779 777 775 773 770 768 766 763 761 758 756 754 751 749 747 745 744 743 742 741 740 740 740 740 741 743 745 746 748 749 750 749 749 748 747 748 748 749 750 749 748 747 747 747 748 748 748 748 748 748 748 748 748 748 749 750 750 750 750 750 749 749 748 748 748 748 748 748 748 748 748 748 748 748 748 748 747 747 747 747 747 746 746
784 782 780 778 776 773 771 769 766 764 762 760 758 756 754 751 749 748 748 747 745 744 744 743 743 743 745 747 749 750 751 752 751 751 750 749 749 749 750 750 750 749 748 747 746 746 746 747 747 747 747 747 747 747 747 747 748 748 748 748 748 748 748 747 747 747 746 746 746 746 746 746 746 746 746 747 747 746 746 746 746 746 745 745 745
786 784 782 780 778 776 774 771 769 767 766 763 762 761 760 757 756 756 755 752 750 749 749 748 748 748 749 751 753 753 753 753 752 752 751 751 751 751 751 751 750 748 747 746 745 745 745 746 746 746 746 746 746 746 746 746 746 746 746 746 746 746 746 745 745 745 745 745 745 745 745 745 745 745 745 745 745 745 745 744 744 744 744 744 744
Wind_Speed
14 15 17 18 19 20 19 18 19 20 21 20 17 16 17 18 17 17 18 18 18 18 19 19 20 19 17 15 16 19 21 21 19 17 17 17 17 17 15 16 17 17 16 15 15 16 16 17 18 19 19 19 20 20 19 19 19 20 20 20 21 21 20 18 11 11 23 28 28 31 32 30 31 31 30 30 28 25 23 22 21 20 21 25 29
12 14 16 19 20 19 17 16 17 19 21 21 20 18 17 17 17 19 20 19 19 20 20 20 20 20 19 18 17 18 20 21 20 20 21 22 22 21 20 20 21 22 21 19 17 16 17 17 18 17 17 17 17 17 18 18 18 19 20 20 22 23 22 22 18 13 18 28 31 32 32 29 29 29 28 27 27 25 24 23 21 21 22 24 26
10 12 14 17 17 15 15 17 18 18 19 19 20 20 19 19 18 18 19 19 19 21 21 21 21 21 20 20 19 19 20 21 22 22 24 26 25 25 24 23 24 25 25 24 21 19 19 20 20 20 19 19 19 19 20 21 21 21 22 22 23 25 24 25 24 19 18 25 29 31 31 30 29 30 29 28 27 27 27 26 24 23 24 24 25
8 9 11 14 14 13 16 19 21 23 21 18 18 18 19 20 19 18 18 17 17 16 16 18 19 20 22 22 22 21 21 23 25 26 27 28 28 28 27 28 28 29 28 27 24 22 23 23 22 22 23 23 23 23 22 23 24 24 25 25 25 26 27 27 27 26 23 22 26 29 30 30 30 31 31 31 30 30 30 29 28 27 27 26 27
6 6 7 10 11 12 16 19 21 21 19 17 17 17 17 18 17 17 18 18 17 14 12 12 14 15 17 18 17 17 18 19 21 22 25 28 30 30 30 30 31 32 31 29 26 24 24 25 25 24 26 27 26 26 26 25 26 27 27 27 27 27 28 29 29 29 27 25 27 29 29 29 30 31 32 31 31 30 30 30 30 30 30 30 30
4 5 6 9 11 14 17 18 17 14 13 15 16 15 13 12 12 13 15 16 17 17 17 16 16 17 17 15 12 12 13 13 14 15 17 20 23 25 27 29 32 33 34 32 28 26 26 27 26 26 26 27 28 28 28 27 27 28 29 30 29 28 29 30 30 29 28 28 29 29 29 29 29 31 32 30 27 28 29 30 31 32 33 32 32
5 7 7 8 11 14 15 15 14 11 10 11 12 11 9 9 10 11 12 13 14 14 16 16 17 18 19 18 17 16 15 16 17 17 16 15 15 16 19 23 28 32 34 33 29 27 26 27 27 27 26 27 27 27 26 25 24 25 26 27 28 27 27 28 28 26 26 28 28 29 29 29 28 30 32 28 23 24 27 27 28 32 33 31 31
4 5 4 5 6 8 9 10 9 8 7 7 7 8 8 8 9 8 8 10 11 12 12 12 13 14 15 15 15 15 15 16 18 18 17 15 13 13 14 15 20 26 29 28 26 24 23 24 24 25 26 27 27 26 24 24 21 21 22 22 23 23 23 25 26 24 24 25 26 29 29 27 27 29 29 25 20 23 27 26 25 31 33 31 31
8 7 6 4 2 1 2 4 5 5 4 4 5 6 7 7 6 5 6 8 10 11 10 9 9 9 10 10 10 10 11 12 14 15 16 16 15 15 15 13 14 17 18 18 18 18 18 19 20 21 23 25 27 27 27 26 23 23 23 22 22 22 23 26 27 25 24 22 23 26 25 24 26 26 25 25 25 27 30 25 23 29 32 30 32
13 12 12 11 10 9 7 5 2 0 2 1 1 2 4 5 5 5 5 5 7 9 8 7 6 5 5 6 6 6 7 8 10 12 13 13 13 14 14 14 13 13 14 14 15 15 16 16 16 16 18 21 24 26 26 26 26 25 25 24 24 24 24 26 26 25 23 21 22 24 21 20 26 26 24 26 28 28 27 23 22 25 25 24 29
15 15 15 14 14 14 13 12 9 7 7 7 6 4 4 3 2 1 1 2 2 3 4 4 3 3 4 4 4 3 4 6 8 9 9 10 11 10 11 13 14 15 16 17 17 17 17 17 16 16 16 16 18 20 21 23 24 23 23 22 22 23 23 25 26 26 24 22 23 23 20 21 26 27 25 25 26 26 25 24 23 22 20 16 17
16 17 17 16 16 16 15 15 13 12 11 10 9 8 7 6 6 5 5 5 4 3 3 3 3 3 3 3 2 3 4 6 7 7 8 10 11 11 11 12 13 14 15 15 16 16 16 17 18 17 17 16 15 16 17 19 20 19 20 21 20 20 22 23 25 26 25 23 23 22 21 22 24 26 26 25 24 25 25 26 25 23 22 18 16
18 17 18 18 17 16 16 16 15 13 12 11 10 10 10 11 10 10 9 8 7 6 6 6 6 5 4 5 6 6 6 7 8 8 10 10 10 11 11 11 11 11 11 12 13 13 13 15 16 15 15 15 15 16 17 19 21 22 22 22 21 22 22 22 23 24 24 25 25 26 27 26 26 28 29 25 23 23 23 24 25 24 23 22 22
19 18 17 17 16 16 17 16 15 13 12 12 12 12 13 13 12 10 9 9 9 8 8 8 9 9 8 8 9 10 10 10 9 9 9 9 9 9 9 8 7 7 7 8 8 9 10 11 12 12 12 12 13 15 17 18 20 22 21 21 21 21 20 21 22 21 21 22 24 27 28 27 28 32 31 28 26 24 23 24 24 23 24 24 25
19 19 19 17 17 16 16 16 17 16 15 14 14 13 12 12 12 10 9 9 9 9 9 10 12 13 13 12 12 14 15 14 13 12 11 9 7 7 5 4 3 4 5 5 6 7 8 8 9 10 10 10 11 13 15 16 17 19 20 20 20 19 16 15 16 17 18 19 22 24 25 24 25 28 28 28 28 27 26 25 23 22 23 24 24
18 19 20 18 16 16 15 16 17 17 17 16 15 13 12 12 13 13 13 14 14 14 15 15 15 15 15 14 15 17 16 15 15 14 13 12 9 5 3 4 5 6 6 6 5 6 7 7 8 8 8 9 11 11 13 15 16 16 17 18 17 15 12 10 10 12 12 13 13 14 14 14 13 14 14 15 16 16 16 15 12 12 14 15 15
17 18 19 18 16 15 14 14 15 16 17 17 16 15 13 13 15 16 18 19 20 19 19 17 16 16 17 17 18 20 19 18 17 17 16 14 11 9 9 9 9 9 9 9 8 9 9 9 8 8 8 9 9 10 10 10 11 11 12 13 12 11 10 8 9 10 9 8 8 7 7 7 8 8 8 7 7 7 6 5 5 6 7 6 5
16 16 17 17 16 15 13 12 12 13 15 16 16 16 16 16 16 16 17 18 18 18 18 18 18 18 19 20 21 22 22 21 20 19 19 17 16 15 15 14 12 11 11 12 13 14 14 15 14 15 15 15 15 15 14 13 12 11 11 11 11 12 12 10 9 8 8 8 8 8 8 8 9 9 8 8 8 7 7 7 6 5 4 3 2
15 14 15 16 16 15 13 12 12 12 13 13 14 13 13 14 14 14 14 15 15 15 15 16 17 18 18 18 19 20 21 22 21 20 19 19 19 19 19 18 17 16 16 17 18 18 18 18 17 17 17 17 17 17 17 17 16 15 14 14 14 13 12 11 9 8 8 8 9 9 10 10 11 11 10 10 10 10 9 8 7 5 6 7 5
13 12 12 13 15 16 15 13 12 12 11 11 11 11 10 10 10 11 11 11 11 12 12 13 14 14 14 14 15 16 17 19 21 20 19 18 17 18 18 19 20 19 18 19 18 18 18 18 17 17 17 17 17 17 17 18 18 17 16 16 14 11 9 9 9 9 9 9 10 11 11 11 12 12 13 13 12 12 11 10 9 9 9 9 9
11 11 10 11 13 14 16 15 13 11 10 9 9 8 8 7 7 7 7 7 7 7 8 9 10 9 9 10 11 12 13 14 16 18 18 17 17 17 18 18 18 18 18 17 17 16 16 16 16 16 16 16 17 17 17 17 17 17 17 15 13 10 9 10 10 9 9 9 10 11 11 12 13 14 14 15 15 14 13 11 10 9 9 8 8
9 9 9 10 10 11 12 13 13 12 9 8 8 7 6 5 4 3 4 5 4 4 4 4 6 6 6 7 7 9 9 10 11 13 15 15 16 16 17 17 16 16 16 16 14 14 13 13 13 13 13 14 14 14 15 15 15 16 16 14 12 11 11 11 10 10 10 10 11 12 12 13 13 14 13 14 14 13 13 12 10 9 8 7 6
7 6 7 7 7 8 9 10 11 12 10 9 8 8 6 5 4 3 4 4 4 4 4 4 3 3 4 5 5 6 6 7 8 9 10 10 10 12 13 13 12 12 13 13 12 10 10 9 9 9 9 9 10 10 11 12 12 13 13 12 11 11 11 11 11 11 12 12 12 12 12 11 11 12 12 11 11 11 11 10 9 8 7 6 5
5 4 4 4 3 3 4 5 7 8 9 9 8 8 7 6 5 4 4 5 5 5 6 7 7 5 3 3 3 3 3 4 4 5 5 5 5 6 6 7 7 8 8 8 8 7 7 7 7 7 6 6 6 6 7 7 8 8 9 9 9 9 10 10 10 10 10 10 10 10 10 9 10 10 11 11 10 10 9 8 7 7 6 5 6
5 4 4 5 5 3 2 1 1 2 4 5 6 6 6 5 5 4 3 3 3 3 3 4 7 8 6 4 3 2 1 1 1 1 2 2 2 2 2 4 5 6 6 7 7 7 7 8 8 8 8 7 7 6 4 4 4 4 4 5 5 6 6 6 6 6 7 8 8 8 8 8 8 9 9 10 9 9 9 8 6 7 7 6 6
3 2 5 6 7 7 5 3 4 4 2 1 2 2 3 3 4 4 2 2 2 3 3 3 5 7 8 6 5 3 2 1 2 2 1 2 3 3 4 5 6 7 8 9 10 10 11 12 13 13 13 13 13 13 10 7 5 4 3 2 2 2 2 3 3 5 7 7 6 7 7 6 7 8 9 10 10 9 9 8 6 6 6 6 4
2 0 3 6 6 8 9 7 5 5 6 6 4 4 3 1 1 2 2 3 2 1 1 3 5 6 6 7 7 5 4 3 3 2 1 1 2 3 4 5 6 7 8 9 10 11 12 13 14 14 15 15 15 15 14 13 13 11 8 6 5 4 3 3 2 4 5 5 5 5 6 6 7 8 9 11 11 10 9 9 8 7 6 6 5
5 3 4 7 7 8 9 10 10 8 5 8 9 8 7 6 4 2 1 0 1 1 1 2 3 4 5 7 8 8 7 7 5 3 1 1 1 2 4 4 5 6 7 9 11 12 13 13 13 13 14 15 16 15 15 15 16 16 14 11 9 7 6 5 3 2 2 3 3 4 4 5 6 7 9 11 11 10 10 9 9 8 8 8 9
6 5 6 8 8 10 10 9 10 13 10 6 10 11 10 8 8 7 5 4 4 4 4 5 6 6 6 6 7 9 9 9 7 5 3 2 2 2 4 5 6 7 9 12 14 15 16 16 16 16 17 18 19 21 21 19 17 17 17 15 13 10 9 8 6 4 3 2 2 2 3 5 6 7 8 9 10 9 9 9 9 9 9 10 10
5 5 7 8 9 10 11 10 11 11 10 6 5 9 10 10 10 11 10 9 8 8 8 9 8 9 10 9 9 9 10 9 8 6 6 5 4 4 5 6 8 9 11 13 16 17 18 18 17 17 17 18 20 21 21 20 17 16 17 17 15 12 11 10 9 8 6 5 4 4 5 6 6 6 8 9 8 8 8 8 8 9 10 11 12
6 7 7 8 9 9 10 12 11 8 6 6 4 4 6 9 10 12 13 14 13 13 13 13 12 13 13 13 12 12 11 11 11 10 8 7 6 7 7 7 8 9 11 14 15 15 13 13 13 13 14 15 15 14 12 12 13 14 16 17 16 14 13 12 10 9 9 8 8 7 7 7 8 8 9 10 10 10 10 10 9 9 9 11 13
7 8 7 8 8 8 10 12 10 8 6 6 6 5 6 7 9 11 12 13 15 16 17 17 17 17 17 16 15 14 14 14 14 13 11 9 8 8 8 8 8 7 9 11 11 11 11 10 10 11 12 14 15 15 14 11 10 11 14 17 18 16 13 11 10 9 10 10 9 10 10 10 10 11 11 12 14 14 15 15 13 11 10 10 11
11 10 8 8 8 9 11 12 11 10 10 11 10 10 10 10 11 12 12 13 14 16 18 19 21 22 21 21 19 18 16 15 15 14 13 10 8 8 9 9 8 6 6 7 7 9 11 10 10 11 11 15 19 20 19 17 14 12 10 11 15 16 15 13 11 11 11 12 12 14 15 15 15 15 15 15 16 16 17 17 16 15 13 11 10
14 14 13 11 11 11 12 12 12 12 13 15 15 16 16 15 14 14 15 15 16 17 18 19 20 23 24 24 24 22 20 18 16 15 13 10 8 8 9 9 7 5 3 3 4 8 11 11 12 12 13 15 18 19 20 19 18 17 16 12 7 6 9 9 6 5 5 5 6 8 8 7 6 7 9 10 10 11 11 12 14 16 16 13 10
17 18 17 16 15 14 13 13 14 15 16 18 19 20 20 20 18 17 17 17 17 18 19 19 19 21 22 24 25 25 24 21 18 16 15 10 8 9 9 8 8 7 4 1 4 8 11 12 12 12 12 13 14 15 16 17 17 17 16 16 14 10 7 5 7 8 9 9 10 11 12 12 11 10 11 11 11 11 10 9 9 12 13 13 12
22 22 22 21 20 19 17 16 16 17 20 21 22 23 23 22 21 20 19 19 19 19 19 20 20 19 19 20 21 23 26 24 20 17 15 10 8 9 9 8 8 8 5 3 8 10 12 12 12 12 12 12 12 11 10 10 10 10 10 10 10 11 11 11 11 12 12 13 14 14 15 15 15 14 14 14 15 15 15 13 13 13 11 8 7
25 25 25 25 25 25 24 22 21 21 22 23 25 25 25 24 24 22 21 21 20 19 20 21 19 18 18 17 17 20 24 25 21 17 14 11 8 9 8 7 6 5 4 7 11 12 13 13 12 12 12 12 12 11 11 10 10 9 9 8 8 9 8 8 9 10 10 12 13 14 14 15 15 15 15 15 15 16 16 15 14 13 12 11 8
27 29 30 30 30 29 29 28 27 26 26 27 29 29 28 28 27 26 24 23 21 19 20 20 20 19 18 15 13 16 20 23 22 18 15 12 9 8 6 5 4 5 7 10 12 13 13 12 12 12 12 12 12 12 11 11 11 9 8 8 7 7 6 6 7 8 9 11 12 13 13 13 13 14 14 14 15 15 15 15 14 12 11 10 9
23 25 27 30 32 33 33 33 32 31 31 31 32 32 31 31 30 30 29 27 24 23 23 23 22 22 20 15 12 13 17 22 24 21 17 12 9 6 5 4 5 7 9 11 11 11 12 12 11 11 11 11 10 10 10 9 8 8 7 6 5 5 4 5 6 7 9 11 12 13 13 13 12 13 13 14 15 16 14 13 13 12 11 9 9
21 21 21 21 22 24 26 28 29 30 31 31 32 31 30 30 31 31 30 28 27 27 27 25 24 22 18 14 12 13 18 25 26 22 17 12 8 7 7 7 8 10 11 11 11 10 10 10 10 9 9 8 8 8 8 8 7 8 7 5 4 3 4 5 6 7 9 10 12 13 14 14 13 13 13 14 15 15 13 11 11 11 10 10 9
26 25 25 24 23 23 22 22 23 24 25 27 27 26 25 24 24 24 24 24 25 25 25 25 25 24 21 18 14 14 19 25 25 20 15 12 10 11 10 9 10 11 11 11 11 9 8 8 7 6 6 6 6 5 6 6 7 8 7 4 2 3 4 5 6 7 9 11 12 14 15 14 14 14 14 14 13 12 10 9 10 11 10 10 10
28 27 27 26 25 24 23 23 23 22 22 23 24 24 24 23 24 25 24 25 27 26 25 26 30 29 26 22 18 17 21 24 22 18 15 14 13 12 11 11 12 12 12 11 10 8 7 6 4 4 3 4 4 4 4 5 6 7 6 3 1 3 4 5 6 8 10 11 13 14 15 14 12 12 13 12 12 11 10 9 9 10 10 10 11
29 29 28 28 27 25 24 23 23 22 22 23 24 24 24 24 25 26 26 27 30 29 25 24 28 29 26 22 20 21 22 20 17 17 17 17 15 13 14 15 15 13 12 10 7 6 4 3 3 2 3 3 3 3 4 4 5 6 5 3 1 2 3 5 6 8 9 11 13 14 14 13 11 11 12 12 11 11 11 11 10 11 12 11 11
31 31 30 30 29 29 27 25 24 24 24 24 24 25 25 25 26 28 28 29 31 31 26 23 23 24 23 22 21 20 17 15 16 19 20 19 18 17 18 17 14 13 11 8 6 3 2 2 2 2 3 3 3 4 4 4 5 5 5 3 2 0 2 3 5 6 8 10 12 12 12 11 9 9 11 12 12 13 13 14 14 14 14 14 13
32 31 31 31 31 31 30 30 29 28 28 27 26 26 26 26 27 29 29 28 29 30 31 30 26 20 18 19 20 21 18 16 19 22 21 20 21 20 18 15 13 12 10 8 5 2 1 2 2 3 4 4 3 4 4 4 5 6 5 4 4 3 2 4 5 5 7 8 10 10 10 9 8 8 8 10 11 12 13 14 15 15 17 17 17
30 30 30 30 30 31 31 31 30 29 28 27 26 25 24 25 25 26 26 26 27 28 30 31 29 26 24 24 25 26 22 19 21 21 19 19 20 18 15 12 10 9 8 6 3 2 3 4 3 4 4 3 2 3 4 5 6 7 6 6 6 5 5 6 6 6 6 7 8 8 8 7 6 5 5 6 8 9 10 12 13 14 16 17 18
28 28 27 27 27 28 28 28 27 27 27 26 25 24 23 23 24 25 26 27 26 25 25 24 22 20 22 24 25 26 23 19 19 18 17 18 17 13 9 6 4 4 4 2 1 3 4 5 5 4 3 2 2 4 5 5 6 7 7 6 6 6 6 6 6 5 5 5 5 6 6 6 4 3 3 4 5 6 8 9 11 12 14 15 17
27 26 25 25 25 25 25 26 26 27 27 26 25 24 23 21 21 21 20 18 16 13 12 11 8 6 7 7 9 17 18 15 14 14 14 13 11 8 4 2 3 4 4 4 5 5 6 7 6 5 4 3 4 4 4 2 2 4 6 6 6 7 7 6 6 4 3 3 3 4 4 4 2 2 2 3 4 5 6 7 8 9 11 12 14
25 25 24 24 24 24 23 23 23 23 23 22 21 20 17 15 13 13 12 12 13 13 11 10 9 8 8 8 8 10 12 11 10 10 9 9 8 6 4 1 3 4 4 3 4 6 6 7 6 5 4 4 3 3 2 2 2 1 4 6 7 8 8 7 6 4 2 1 2 2 2 2 1 1 2 3 4 5 5 5 6 8 9 11 13
23 24 24 24 24 23 23 23 24 23 23 22 22 22 22 21 21 20 20 21 22 22 22 22 22 20 18 17 16 15 14 13 12 12 12 11 8 5 2 1 3 3 3 3 3 5 6 6 6 4 3 3 2 2 2 3 3 4 5 7 8 9 10 9 7 4 2 1 1 1 1 2 3 3 3 4 4 5 5 4 5 7 9 11 13
24 25 26 26 26 26 27 28 28 28 27 27 28 28 28 28 28 27 26 26 27 27 26 25 24 23 21 19 17 15 15 14 14 13 12 10 7 5 4 5 7 7 7 4 3 5 6 5 4 2 1 2 3 4 6 7 8 8 8 8 8 10 11 10 8 5 3 3 3 2 2 3 4 5 5 5 4 5 4 4 4 5 7 9 10
Wind_Direction
226 227 230 233 236 234 234 238 239 242 246 249 250 248 249 249 248 249 245 238 235 235 234 233 234 239 244 242 232 229 231 230 230 234 239 242 242 243 243 240 240 244 249 253 252 250 250 252 254 256 258 259 261 262 263 265 268 268 269 270 269 268 265 256 244 267 278 279 282 282 282 285 284 284 284 286 288 291 292 291 286 280 276 270 266
221 226 230 234 236 236 239 245 247 248 249 250 250 249 252 254 248 245 248 247 245 244 242 240 240 240 242 243 237 234 237 236 235 239 242 242 241 242 242 242 243 244 246 249 249 245 244 247 250 253 254 255 256 257 258 259 259 260 260 261 262 262 261 259 254 257 274 278 280 283 285 285 284 286 288 289 291 294 292 291 289 284 280 277 273
222 223 230 239 243 246 252 254 253 253 252 251 251 252 257 259 250 245 248 255 259 257 250 245 244 243 243 245 243 241 243 241 241 246 246 243 242 243 244 245 247 245 244 246 247 245 244 247 252 256 256 255 256 256 257 259 258 257 258 257 257 259 259 258 256 254 260 271 276 279 283 285 286 289 291 290 291 292 290 289 288 285 283 282 280
228 223 235 250 258 261 261 259 255 252 253 254 254 256 260 259 253 248 248 251 254 255 253 250 249 246 245 247 248 248 248 246 247 250 248 245 245 246 246 248 249 247 245 246 248 250 250 251 256 260 258 257 258 259 258 259 259 258 259 259 258 259 260 257 256 255 255 262 269 273 278 283 286 289 289 288 287 287 287 286 284 282 282 282 282
239 237 250 255 254 252 253 255 254 252 254 257 257 255 255 256 254 250 250 250 246 243 246 251 252 250 250 250 252 255 255 254 255 256 253 249 248 248 249 251 251 249 248 248 249 251 253 257 261 264 261 259 259 261 260 259 261 260 259 261 260 260 261 259 257 256 254 256 263 268 272 276 281 284 284 283 284 285 284 282 280 278 279 279 280
253 239 246 240 229 229 237 244 249 253 255 252 250 251 253 259 263 261 261 263 259 255 256 258 258 256 251 248 252 261 262 259 260 263 261 256 253 253 253 254 253 251 249 248 248 251 254 259 265 266 263 262 263 265 265 263 263 263 262 263 263 262 261 260 258 256 253 255 261 266 269 270 272 277 279 278 277 279 280 280 278 276 275 274 275
214 214 222 228 223 223 227 235 242 250 255 249 248 255 261 265 267 267 271 276 274 271 271 272 269 263 258 257 259 265 266 263 263 266 266 265 264 260 256 257 257 254 250 247 246 251 256 259 264 265 264 266 268 269 270 269 268 267 267 267 267 266 264 264 263 259 256 258 262 266 269 270 269 271 276 278 275 273 273 272 274 276 275 273 273
164 184 204 225 232 230 231 237 243 251 259 256 254 259 258 255 259 267 281 287 286 282 280 280 277 271 271 270 266 265 268 270 269 268 265 265 267 263 262 265 262 256 250 246 247 256 262 262 262 263 263 264 265 267 271 273 273 272 272 272 271 268 269 272 272 267 263 261 262 265 268 270 270 270 274 275 270 269 270 265 265 273 276 275 274
96 92 89 92 102 150 204 218 231 251 268 257 246 248 251 259 277 297 298 285 278 276 276 279 280 277 277 278 273 271 277 281 279 276 273 273 275 275 273 271 264 257 252 251 256 265 267 266 265 265 265 265 264 267 271 270 269 271 274 275 273 270 270 272 272 269 266 263 262 265 266 267 269 268 268 267 264 267 271 268 263 268 274 275 274
89 86 80 75 74 74 79 96 128 279 4 22 257 285 296 306 317 311 295 279 274 279 283 287 296 301 299 303 305 294 284 282 282 282 284 287 290 287 279 272 268 267 267 267 271 275 276 274 272 270 269 268 268 270 269 266 265 268 272 275 275 274 270 268 267 266 265 262 262 264 264 264 267 267 265 266 267 268 271 269 266 269 274 278 279
88 83 80 77 74 72 71 72 75 70 65 69 65 47 33 32 29 304 326 2 330 312 315 316 328 355 0 352 339 321 301 293 292 290 292 299 302 300 290 282 279 278 278 280 282 285 285 284 283 282 281 279 276 273 268 264 264 267 271 275 276 275 270 265 263 264 264 262 262 263 261 262 267 269 270 271 270 269 266 265 267 270 269 268 274
80 76 76 78 77 76 76 76 79 82 85 86 85 85 89 89 86 79 67 61 62 64 55 36 35 45 44 43 35 11 339 318 312 308 305 306 308 306 301 296 292 288 287 289 292 293 293 291 289 288 289 290 287 281 274 269 269 272 277 278 279 278 276 270 265 264 264 266 268 268 265 267 271 273 273 272 272 272 270 269 268 265 262 256 255
73 71 74 79 81 85 88 87 88 90 90 91 89 86 82 76 70 68 69 70 68 68 69 66 70 76 71 57 40 20 358 339 330 321 313 306 300 296 293 293 295 298 300 303 304 306 306 303 302 301 300 298 293 287 283 280 280 280 279 280 281 282 283 282 278 275 272 270 268 268 269 270 272 273 273 273 275 277 275 272 269 265 263 261 261
71 70 75 80 82 87 92 93 91 89 86 85 83 81 78 75 70 67 72 80 79 77 80 82 81 76 65 57 48 40 34 23 9 353 335 319 304 296 290 289 299 316 329 334 334 332 328 319 315 313 309 303 296 290 290 289 287 287 288 289 289 287 288 289 290 290 287 280 275 276 278 276 273 273 274 271 271 271 268 268 270 269 267 268 270
69 69 73 78 80 83 88 92 91 87 84 83 84 88 92 91 86 80 82 87 86 86 87 86 83 79 74 71 66 58 50 42 33 26 17 5 343 319 305 307 337 8 18 14 359 347 341 331 322 317 313 310 305 301 301 299 297 296 297 297 296 297 302 302 299 297 293 289 285 284 285 283 277 277 275 268 263 261 261 265 270 274 276 277 279
70 68 70 73 75 79 87 93 90 86 86 85 86 90 96 99 98 97 96 94 92 91 90 86 84 82 78 73 68 61 53 45 40 35 28 26 22 12 28 68 68 64 61 51 32 16 6 355 345 337 330 323 319 315 310 304 299 298 300 303 307 315 325 325 319 314 307 304 300 295 296 298 298 298 292 281 272 266 265 269 276 288 292 288 288
70 67 68 70 71 73 85 96 95 91 90 88 86 87 92 99 101 100 98 96 94 91 88 85 84 83 80 74 69 65 59 51 46 44 40 38 44 58 77 88 85 73 64 55 48 46 42 37 33 31 23 15 6 356 345 334 326 322 322 325 334 348 360 359 351 349 350 352 355 357 355 354 354 352 345 337 329 316 310 324 335 329 321 303 304
72 69 68 70 71 72 82 100 105 99 95 94 91 89 93 99 101 101 99 98 96 92 89 88 89 88 84 79 73 67 61 55 50 50 49 50 57 70 81 89 91 84 76 71 68 67 65 61 58 56 50 44 39 33 29 27 23 19 15 16 22 25 21 14 8 8 11 13 16 19 21 19 20 20 17 16 15 11 15 24 11 353 15 39 56
72 72 71 73 75 74 80 101 117 111 102 103 102 98 99 101 101 101 100 99 98 96 92 92 93 92 86 78 72 67 63 58 54 53 56 59 64 73 80 85 89 89 86 81 75 72 69 64 58 54 50 46 43 41 40 42 44 46 48 46 43 37 28 24 22 18 19 26 29 31 35 38 38 40 41 41 42 41 43 45 38 42 65 67 67
71 70 72 74 75 74 74 89 114 122 116 114 114 114 113 110 108 109 108 105 106 105 101 99 99 97 90 80 72 67 63 60 57 55 58 62 66 72 78 81 84 84 82 79 75 71 68 64 59 55 52 50 49 48 47 48 49 53 55 53 47 37 28 29 32 32 34 42 45 45 48 49 48 50 51 50 49 48 48 53 55 62 73 72 71
74 70 69 70 72 70 69 76 92 110 118 119 120 124 129 127 120 118 120 120 116 112 111 107 105 102 93 82 73 67 62 60 59 57 59 64 67 70 73 75 79 82 81 78 76 74 71 68 66 63 60 56 54 53 54 53 53 55 56 55 51 46 41 42 44 45 48 53 55 54 55 55 54 54 53 51 50 48 46 47 52 58 66 71 75
71 66 64 66 68 66 63 67 78 89 99 104 104 108 125 141 146 146 153 156 150 142 141 131 117 109 99 85 75 69 61 56 56 58 61 63 64 65 67 68 72 78 80 78 75 73 70 68 69 68 66 62 58 55 55 55 57 59 59 61 61 57 55 55 54 54 56 58 60 59 58 58 56 53 51 48 46 42 40 40 42 43 48 55 61
76 71 63 61 66 64 56 59 71 78 79 79 84 89 97 114 140 175 197 201 201 204 210 210 192 148 119 102 87 75 61 51 52 60 65 63 57 54 58 61 61 62 66 65 61 58 55 54 55 56 58 60 58 55 52 51 54 58 61 64 67 68 69 70 69 66 62 57 55 54 52 49 45 40 35 30 26 24 23 25 26 26 27 25 21
73 82 70 55 58 61 52 53 63 72 73 67 66 71 71 77 98 133 180 201 210 219 224 226 228 223 195 152 120 92 67 47 44 56 66 64 53 44 44 46 43 39 39 36 32 31 33 31 28 26 27 34 40 46 46 41 42 50 56 59 65 74 79 80 77 70 63 54 45 37 31 27 22 17 15 16 17 17 16 15 19 24 25 16 8
45 51 41 33 34 19 317 280 22 48 62 60 60 65 63 62 72 91 131 158 155 157 177 211 226 230 228 217 189 157 122 47 3 17 35 25 12 8 0 357 0 0 357 353 349 349 349 348 346 342 339 339 342 346 355 8 14 22 32 44 58 73 76 72 66 55 46 40 30 19 13 13 9 2 2 9 14 17 18 19 23 30 38 43 39
356 18 23 23 30 27 7 286 258 261 273 342 12 42 58 56 62 66 68 72 91 117 133 160 194 211 226 228 209 190 201 263 287 300 323 327 317 310 313 323 329 330 330 331 330 329 327 325 323 321 319 318 317 314 307 296 298 308 307 321 352 27 43 37 28 20 16 13 11 12 14 10 1 355 352 352 358 7 12 13 15 21 33 44 45
357 126 34 18 14 19 20 10 328 273 245 244 260 266 266 282 38 61 48 33 29 67 141 162 170 185 208 218 213 215 240 262 268 279 316 350 334 323 323 328 328 325 325 323 323 324 324 321 319 317 315 313 312 308 300 289 284 283 278 277 287 294 304 318 341 5 5 355 352 1 6 356 348 348 345 342 345 353 357 357 360 2 6 10 4
45 70 35 16 5 360 3 4 359 344 291 249 245 249 254 260 263 259 255 336 343 346 299 238 221 211 207 207 213 228 249 262 262 264 287 348 9 355 351 351 344 333 329 328 326 326 324 322 321 319 316 314 312 310 308 299 286 276 271 270 273 276 282 287 293 329 351 340 340 348 347 339 339 341 341 340 345 349 345 342 344 344 344 344 343
32 29 11 4 358 352 350 345 343 349 345 294 254 252 257 265 271 273 271 263 261 271 277 274 273 267 252 237 232 238 250 261 264 268 282 295 320 342 344 346 342 335 333 332 329 325 322 319 317 315 317 319 316 311 310 308 295 276 266 263 264 265 268 272 271 265 255 263 287 298 303 314 325 332 333 334 342 348 342 332 329 330 330 331 332
347 345 345 346 339 333 338 338 333 342 355 351 288 266 267 273 276 276 276 273 268 267 269 271 272 271 268 267 264 262 265 269 268 269 275 282 297 312 321 329 331 332 334 333 329 325 321 317 318 323 329 330 324 313 307 305 300 282 263 255 255 258 260 260 258 253 250 251 254 260 273 289 302 314 321 321 327 337 336 327 321 317 315 317 320
320 317 316 324 324 313 311 320 327 333 349 7 3 313 294 293 289 283 279 276 273 271 270 269 267 265 265 266 266 265 268 269 267 266 269 276 290 300 309 319 322 324 331 336 338 339 337 333 340 353 359 355 345 334 323 313 304 290 272 257 249 248 252 253 250 250 257 260 259 261 268 275 285 296 303 305 306 310 313 314 314 313 312 311 309
291 301 295 293 296 293 292 303 310 305 302 321 336 328 318 312 303 296 289 281 276 275 273 271 269 265 261 260 260 259 259 262 265 266 267 273 286 295 302 307 306 314 333 345 359 16 21 19 20 23 26 28 32 35 33 20 351 320 294 268 249 238 240 246 245 246 255 261 264 270 276 283 291 298 301 302 301 301 303 303 303 304 304 300 296
263 270 271 270 271 275 283 293 292 277 274 284 291 293 297 298 294 292 289 284 280 276 271 270 271 269 264 260 257 254 253 255 259 263 264 266 276 290 300 301 295 303 337 358 28 54 61 61 59 56 54 55 58 58 54 46 33 14 345 298 265 247 239 244 252 256 264 274 282 288 291 293 295 298 301 301 299 299 302 303 304 303 297 286 283
253 254 256 257 259 262 271 281 278 264 259 264 268 272 277 281 283 283 282 279 278 277 275 274 274 272 269 265 259 254 250 249 253 258 259 258 267 286 300 302 288 284 320 1 65 94 98 98 93 85 77 72 69 67 64 59 52 43 35 19 343 276 246 252 270 278 281 294 308 316 322 323 319 322 325 320 313 311 310 307 307 304 291 269 265
250 251 252 253 253 254 260 266 266 258 254 256 260 263 268 272 274 275 275 275 277 281 285 288 287 284 281 276 268 258 248 245 248 249 247 251 272 289 298 303 294 288 303 0 137 132 124 120 115 106 96 89 82 76 70 65 57 51 46 43 44 52 66 73 76 82 83 76 67 58 55 57 59 55 43 35 31 25 15 3 347 328 301 270 261
250 250 252 254 254 253 254 256 257 256 255 258 261 263 264 266 268 271 275 278 278 281 286 291 296 298 295 288 278 261 247 241 242 243 241 248 275 288 294 303 301 293 284 184 158 148 137 130 124 118 110 102 95 88 80 69 62 59 57 55 59 66 71 77 81 81 77 72 64 58 55 53 49 46 44 40 37 34 29 24 18 10 355 325 295
256 253 254 258 259 258 257 256 256 255 256 259 262 262 261 262 264 267 272 275 276 278 283 286 291 295 296 292 284 266 248 237 234 236 237 243 265 282 289 290 280 262 221 175 160 149 138 130 123 116 110 102 95 91 87 80 76 75 76 80 84 84 82 80 76 71 68 66 58 51 49 46 40 36 34 32 32 31 29 24 19 17 16 11 0
264 260 260 262 263 262 260 259 259 259 259 259 259 260 260 261 262 263 265 267 268 269 273 275 279 285 289 287 280 269 251 234 228 229 230 235 253 267 269 254 219 191 169 158 152 143 133 125 117 109 104 99 94 90 85 80 75 71 72 84 93 94 89 83 75 70 66 61 55 49 44 41 38 32 28 28 27 23 21 21 19 16 16 14 7
290 285 280 276 272 269 266 265 264 264 263 262 261 261 260 259 260 260 260 261 263 263 264 266 268 274 279 275 266 259 241 223 218 221 222 226 239 240 223 195 173 162 153 147 143 138 130 122 116 109 103 96 91 84 77 73 66 59 66 88 103 101 93 82 73 68 60 52 48 43 36 33 32 27 24 24 22 17 16 19 22 20 17 13 5
350 344 336 325 313 302 294 289 284 281 279 276 273 270 267 264 264 263 262 262 262 261 261 261 261 266 273 270 258 246 230 216 211 212 218 222 215 195 181 170 163 161 157 149 144 140 132 123 115 107 99 90 84 78 70 63 52 47 57 84 106 106 100 88 73 62 52 43 37 31 26 22 19 17 18 20 20 20 23 27 30 28 24 20 16
3 -0 357 354 351 345 339 330 320 313 309 302 295 289 285 282 282 283 286 289 287 280 274 273 272 269 266 262 258 246 226 213 206 206 212 209 190 174 169 165 165 166 161 154 149 144 135 125 113 100 87 74 64 54 46 41 37 37 41 57 98 110 107 93 71 55 45 38 32 27 24 20 14 13 15 16 18 25 35 40 36 30 24 23 22
359 355 352 349 347 345 344 341 335 330 327 322 315 306 300 296 294 294 296 299 300 297 296 297 293 279 262 252 249 236 218 206 199 197 194 182 170 165 163 164 168 167 158 151 150 147 141 132 115 89 62 41 24 11 11 17 22 22 20 15 70 112 102 85 64 49 39 33 29 25 22 19 15 14 15 14 16 25 37 44 42 34 29 26 23
355 351 349 346 343 339 335 333 330 327 325 323 319 312 305 299 295 291 288 289 291 291 290 295 295 284 267 249 233 217 207 200 190 180 171 162 157 157 158 157 156 148 137 132 133 135 135 130 107 72 39 15 351 336 343 357 4 7 5 352 332 96 83 69 58 49 39 32 29 27 23 20 19 22 27 30 34 40 44 46 44 39 35 31 26
351 347 345 342 339 336 333 330 328 326 324 322 318 311 303 296 292 290 286 284 283 279 276 280 287 284 273 253 226 206 204 203 185 168 158 150 146 146 147 145 137 126 116 111 108 111 111 96 73 33 359 342 328 323 330 341 345 347 346 326 291 304 53 43 41 38 32 27 27 28 27 25 28 36 42 43 44 47 48 46 43 40 37 35 33
349 344 340 337 335 333 331 328 325 323 321 319 316 312 307 301 297 294 289 285 281 278 278 280 276 266 258 247 224 210 211 204 177 158 149 145 142 139 138 134 125 118 115 108 95 75 3 333 322 308 298 289 294 313 324 328 330 329 321 301 282 279 318 346 355 5 11 15 20 25 28 30 37 46 47 42 40 42 44 43 42 41 40 40 40
349 344 340 337 335 332 331 330 329 327 325 323 320 318 316 313 310 306 300 296 293 290 289 286 273 257 257 259 243 222 208 187 165 153 148 145 141 138 136 133 124 122 128 123 96 34 336 310 279 255 247 247 285 323 323 317 312 304 293 284 277 278 295 312 320 328 340 349 0 11 18 24 34 46 48 42 40 41 41 41 43 43 43 43 42
349 345 342 340 339 338 339 339 337 336 334 332 328 325 323 322 321 319 315 310 304 297 292 288 277 264 268 266 244 216 193 169 156 152 145 137 134 133 138 148 161 173 181 195 288 301 295 282 258 238 238 264 299 313 314 311 301 283 271 268 273 280 290 297 299 306 320 334 350 4 9 14 29 48 49 43 41 37 38 42 44 42 41 39 36
353 351 348 345 344 344 343 341 340 339 338 335 330 326 325 326 328 330 329 330 330 325 313 307 301 298 310 297 224 189 171 153 143 142 138 133 130 126 125 156 231 246 260 276 273 266 263 257 244 239 256 281 293 301 310 326 308 279 271 277 287 291 290 287 284 289 307 335 0 4 359 2 26 45 27 23 23 20 23 31 34 32 29 27 23
2 2 2 0 359 358 355 354 353 353 351 348 346 347 349 352 357 3 14 27 35 41 44 43 44 49 45 48 86 125 132 125 118 117 116 114 115 115 107 38 300 291 288 274 243 227 226 225 223 230 251 268 279 293 322 53 66 308 294 299 300 293 284 275 268 268 279 338 11 6 353 349 357 342 333 338 339 339 349 3 12 15 14 10 6
17 18 19 19 20 21 21 22 23 22 20 21 25 29 34 40 44 47 52 57 58 61 65 66 66 68 70 70 73 78 79 75 72 69 65 64 72 85 88 316 303 316 332 314 251 207 195 198 204 211 224 243 267 309 346 6 0 332 315 308 296 282 273 264 256 255 263 265 255 267 298 312 306 290 286 297 304 307 319 340 354 359 1 0 359
36 37 39 40 41 42 42 42 42 42 42 45 47 47 47 50 53 53 53 54 54 53 54 55 57 58 56 51 47 45 43 42 42 41 39 38 33 17 344 321 316 321 325 308 241 194 183 190 202 209 242 306 327 334 334 333 331 326 322 315 298 281 271 264 259 262 261 244 232 241 264 282 285 278 272 274 281 288 297 312 330 344 352 355 355